Home   Weather   Chattanooga   Past weeks
Flag for USA

Past Weather in Chattanooga, Tennessee, USA — Yesterday and Last 2 Weeks

Now
89 °F

Broken clouds.


Feels Like: 93 °F
Forecast: 90 / 72 °F
Wind: 8 mph from South

Location: Lovell Field

Current Time: Jul 15, 2019 at 2:50:35 pm

Latest Report: Jul 15, 2019 at 1:53 pm


Visibility: 10 mi

Pressure: 30.12 "Hg

Humidity: 50%

Dew Point: 68 °F

Location of ChattanoogaLocation

Past Weather in Chattanooga — Graph

°F

Chattanooga Temperature Yesterday

Maximum temperature yesterday: 88 °F (at 4:53 pm)
Minimum temperature yesterday: 73 °F (at 6:53 am)
Average temperature yesterday: 79 °F

High & Low Weather Summary for the Past Weeks

 TemperatureHumidityPressure
High99 °F (Jul 9, 4:53 pm)100% (Jul 14, 6:53 am)30.22 "Hg (Jul 14, 6:53 am)
Low71 °F (Jul 4, 6:53 am)35% (Jul 6, 2:53 pm)29.84 "Hg (Jul 8, 5:53 pm)
Average82 °F72%29.99 "Hg
* Reported Jun 30 12:53 pm — Jul 15 12:53 pm, Chattanooga. Weather by CustomWeather, © 2019

Note: Actual official high and low records may vary slightly from our data, if they occured in-between our weather recording intervals... More about our weather records

Advertising

Chattanooga Weather History for the Previous 24 Hours

Scroll right to see more
 ConditionsComfort  
Time TempWeatherWind HumidityBarometerVisibility
12:53 pm
Mon, Jul 15
87 °FBroken clouds.3 mph65%30.13 "Hg10 mi
11:53 am85 °FBroken clouds.No wind68%30.14 "Hg10 mi
10:53 am83 °FBroken clouds.3 mph72%30.14 "Hg10 mi
9:53 am82 °FBroken clouds.5 mph74%30.14 "Hg10 mi
8:53 am77 °FBroken clouds.No wind88%30.13 "Hg10 mi
7:53 am74 °FFog.No wind94%30.13 "Hg5 mi
6:53 am72 °FBroken clouds.No wind97%30.12 "Hg7 mi
5:53 am73 °FPassing clouds.3 mph94%30.11 "Hg10 mi
4:53 am73 °FClear.3 mph97%30.12 "Hg10 mi
3:53 am73 °FClear.No wind97%30.11 "Hg10 mi
2:53 am75 °FClear.No wind90%30.12 "Hg10 mi
1:53 am76 °FClear.No wind91%30.12 "Hg10 mi
12:53 am75 °FClear.No wind94%30.14 "Hg10 mi
11:53 pm
Sun, Jul 14
77 °FPartly cloudy.No wind88%30.15 "Hg10 mi
10:53 pm79 °FPassing clouds.No wind82%30.15 "Hg10 mi
9:53 pm80 °FPassing clouds.No wind76%30.14 "Hg10 mi
8:53 pm81 °FBroken clouds.No wind74%30.12 "Hg10 mi
7:53 pm85 °FBroken clouds.No wind59%30.12 "Hg10 mi
6:53 pm86 °FBroken clouds.3 mph53%30.13 "Hg10 mi
5:53 pm86 °FBroken clouds.6 mph55%30.12 "Hg10 mi
4:53 pm88 °FBroken clouds.6 mph54%30.14 "Hg10 mi
3:53 pm86 °FBroken clouds.No wind57%30.16 "Hg10 mi
2:53 pm85 °FBroken clouds.5 mph61%30.17 "Hg10 mi
Weather by CustomWeather, © 2019

See weather overview